Regional Weather Roundup
Issued by NWS Boston, MA

Current Version | Previous Version | Text Only | Print | Product List | Glossary Off
Versions: 1 2 3 4 5 6 7 8 9 10 11 12 13 14 15 16 17 18 19 20 21 22 23 24 25 26 27 28 29 30 31 32 33 34 35 36 37 38 39 40 41 42 43 44 45 46 47 48 49 50
000 ASUS41 KBOX 231410 RWRBOX REGIONAL WEATHER ROUNDUP NATIONAL WEATHER SERVICE TAUNTON MA 1000 AM EDT SUN APR 23 2017 NOTE: "FAIR" INDICATES FEW OR NO CLOUDS BELOW 12,000 FEET WITH NO SIGNIFICANT WEATHER AND/OR OBSTRUCTIONS TO VISIBILITY. MAZALL-231500- EASTERN MASSACHUSETTS CITY SKY/WX TMP DP RH WIND PRES REMARKS BOSTON MOSUNNY 51 39 63 NE7 30.10R BEVERLY SUNNY 53 39 59 N3 30.08S LAWRENCE SUNNY 53 37 54 N5 30.10S BEDFORD SUNNY 53 36 52 N7 30.08S BLUE HILL N/A 51 37 58 VRB6 30.07R NORWOOD SUNNY 53 38 56 N6 30.09S MARSHFIELD SUNNY 50 37 62 N9 30.09S PLYMOUTH SUNNY 52 38 58 N10 30.09R TAUNTON SUNNY 54 39 57 N7 30.09R NEW BEDFORD SUNNY 52 40 63 VRB6 30.07S $$ MAZALL-231500- CAPE COD AND THE ISLANDS CITY SKY/WX TMP DP RH WIND PRES REMARKS FALMOUTH SUNNY 52 39 62 MISG 30.09R HYANNIS SUNNY 49 40 71 N10 30.07R CHATHAM MOSUNNY 51 42 71 VRB6 30.09R PROVINCETOWN SUNNY 47 41 80 NW9 30.10R NANTUCKET PTSUNNY 50 41 71 N7 30.08R MARTHAS VNYRD CLOUDY 51 39 63 N15 30.08R $$ MAZALL-231500- CENTRAL AND WESTERN MASSACHUSETTS CITY SKY/WX TMP DP RH WIND PRES REMARKS WORCESTER SUNNY 49 33 54 VRB7 30.08R FITCHBURG SUNNY 54 36 50 NW9 30.09S ORANGE SUNNY 51 36 56 NW12 30.09S SPRINGFIELD SUNNY 52 34 50 NE9 30.09S WESTFIELD SUNNY 54 35 48 N7 30.10S NORTH ADAMS SUNNY 51 35 54 NW8 30.11S PITTSFIELD SUNNY 49 34 56 NW9 30.09S $$ RIZALL-231500- RHODE ISLAND CITY SKY/WX TMP DP RH WIND PRES REMARKS PROVIDENCE SUNNY 53 38 56 N9 30.10R NEWPORT MOSUNNY 51 40 65 N9 30.09R BLOCK ISLAND CLOUDY 50 39 66 NE10 30.11R SMITHFIELD SUNNY 51 38 60 NE7 30.09S WESTERLY CLOUDY 54 38 54 N9 30.10R $$ CTZALL-231500- CONNECTICUT CITY SKY/WX TMP DP RH WIND PRES REMARKS BRADLEY INTL MOSUNNY 53 35 50 N5 30.11S HARTFORD SUNNY 54 37 52 N10 30.11S BRIDGEPORT SUNNY 55 37 50 NE6 30.12S DANBURY SUNNY 50 37 61 VRB6 30.13S GROTON SUNNY 54 37 52 NW8 30.10R NEW HAVEN SUNNY 53 37 54 NE10 30.11S CHESTER FAIR 52 36 54 NW8 30.10S MERIDEN SUNNY 54 35 48 NW9 30.12S WILLIMANTIC SUNNY 55 36 48 NW12 30.10S OXFORD MOSUNNY 50 34 53 NE9G16 30.13R $$ MEZ002-015-021-024-NHZ003-005-008-011-012-014-VTZ005-008-231500- NORTHERN NEW ENGLAND CITY SKY/WX TMP DP RH WIND PRES REMARKS PORTLAND ME SUNNY 51 36 56 N10 30.07S BANGOR ME CLOUDY 43 38 82 N6 30.05R CONCORD NH SUNNY 53 36 52 NW9 30.08S MANCHESTER NH SUNNY 53 34 48 N5 30.08R NASHUA NH SUNNY 51 37 58 NW8 30.09S PORTSMOUTH NH MOSUNNY 52 37 56 N3 30.07S JAFFREY NH SUNNY 50 36 58 VRB3 30.08S KEENE NH SUNNY 50 34 54 N7 30.10F BURLINGTON VT MOSUNNY 50 35 56 CALM 30.09F MT. WASHINGTON MOSUNNY 30 12 47 NW36 N/A WCI 14 $$ NYZ052-076-231500- EASTERN NEW YORK CITY SKY/WX TMP DP RH WIND PRES REMARKS ALBANY MOSUNNY 53 35 50 VRB3 30.13S NEW YORK CITY MOSUNNY 54 35 48 NE10 30.12F $$ ANZALL-231500- MARINE OBSERVATIONS STATION/POSITION TIME TEMP WIND PRES VSBY WAVE AIR SEA DIR/SP/G HT/PER (UTC) (F) (DEG/KT/KT) (MB) (MI) (FT/S) BOSTON BUOY 1250 44 45 320/ 8/ 10 1017.8 5/ 7 BUZZARDS BAY 1300 46 360/ 9/ 10 1019.0R NANTUCKET SOUND 1350 48 1018.5R 2/ 6 MASS BAY-STELLWA 1304 45 45 330/ 8/ 10 1017.9R 4/ 8 ISLE OF SHOALS 1300 43 310/ 6/ 6 1018.4R S OF BLOCK IS 1355 46 N/A 3/12 $$ ......................KEY......................... SKY/WX - SKY CONDITION/PRESENT WEATHER TMP - TEMPERATURE IN FAHRENHEIT DWPT - DEWPOINT IN FAHRENHEIT RH - RELATIVE HUMIDITY IN PERCENT WIND - DIRECTION AND SPEED IN MPH PRES - MEAN SEA LEVEL PRESSURE IN INCHES OF HG WCI - WIND CHILL INDEX VSB - VISIBILITY IN MILES HX - HEAT INDEX TC - TEMPERATURE IN CELSIUS VRB - VARIABLE WIND DIRECTION N/A - NOT AVAILABLE

USA.gov is the U.S. government's official web portal to all federal, state and local government web resources and services.